Home > Weather > Stockton > Past weeks

Flag for USA Past Weather in Stockton, California, USA — Yesterday and Last 2 Weeks

Now
83 °F

Sunny.


Feels Like: 81 °F
Forecast: 65 / 105 °F
Wind: 8 mph from Northwest

Location: Stockton Metropolitan Airport

Current Time: Jun 28, 2016 at 10:07:07 AM

Latest Report: Jun 28, 2016 at 8:55 AM


Visibility: 10 mi

Pressure: 29.94 "Hg

Humidity: 32%

Dew Point: 50 °F

Location of StocktonLocation

Past Weather in Stockton — Graph

°F

Stockton Temperature Yesterday

Maximum temperature yesterday: 102 °F (at 3:55 PM)
Minimum temperature yesterday: 65 °F (at 5:55 AM)
Average temperature yesterday: 84 °F

High & Low Weather Summary for the Past Weeks

 TemperatureHumidityPressure
High102 °F (Jun 26, 5:55 PM)84% (Jun 16, 5:55 AM)30.17 "Hg (Jun 16, 5:55 AM)
Low49 °F (Jun 16, 5:55 AM)9% (Jun 20, 4:55 PM)29.83 "Hg (Jun 25, 5:55 PM)
Average74 °F42%29.97 "Hg
* Reported Jun 13 7:55 AM — Jun 28 7:55 AM, Stockton, Weather by CustomWeather, © 2016

Note: Actual official high and low records may vary slightly from our data, if they occured in-between our weather recording intervals... More about our weather records

Advertising

Stockton Weather History for the Previous 24 Hours

Scroll right to see more
 ConditionsComfort  
Time TempWeatherWind HumidityBarometerVisibility
7:55 AM
Tue, Jun 28
78 °FSunny.6 mph42%29.93 "Hg10 mi
6:55 AM71 °FSunny.3 mph47%29.92 "Hg10 mi
5:55 AM66 °FClear.3 mph56%29.91 "Hg10 mi
4:55 AM71 °FClear.3 mph44%29.90 "Hg9 mi
3:55 AM70 °FClear.6 mph53%29.89 "Hg10 mi
2:55 AM72 °FClear.7 mph46%29.89 "Hg10 mi
1:55 AM71 °FClear.3 mph49%29.89 "Hg10 mi
12:55 AM75 °FClear.6 mph39%29.89 "Hg10 mi
11:55 PM
Mon, Jun 27
77 °FClear.5 mph39%29.88 "Hg10 mi
10:55 PM80 °FClear.9 mph34%29.88 "Hg10 mi
9:55 PM83 °FClear.8 mph34%29.88 "Hg10 mi
8:55 PM86 °FSunny.10 mph30%29.87 "Hg10 mi
7:55 PM92 °FSunny.13 mph24%29.86 "Hg10 mi
6:55 PM96 °FSunny.16 mph19%29.86 "Hg10 mi
5:55 PM100 °FSunny.16 mph16%29.86 "Hg10 mi
4:55 PM102 °FSunny.16 mph14%29.87 "Hg10 mi
3:55 PM102 °FSunny.13 mph17%29.88 "Hg10 mi
2:55 PM100 °FSunny.13 mph18%29.90 "Hg10 mi
1:55 PM99 °FSunny.13 mph19%29.93 "Hg10 mi
12:55 PM97 °FSunny.10 mph22%29.94 "Hg10 mi
11:55 AM93 °FSunny.8 mph26%29.95 "Hg10 mi
10:55 AM90 °FSunny.6 mph28%29.96 "Hg10 mi
Weather by CustomWeather, © 2016

See weather overviewHow to use our weather pages